Location: Lecco
(45.8566°N, 9.3977°E)
Time: 19:50:58
(UTC+02:00)

Vanguard 3 - Visible Passes

Search period start: 14 August 2020 00:00
Search period end: 24 August 2020 00:00
Orbit: 509 x 3262 km, 33.4° (Epoch: 13 August)

Date Brightness Start Highest point End Pass type
(mag) Time Alt. Az. Time Alt. Az. Time Alt. Az.
14 Aug 11.1 02:28:56 13° SSE 02:34:20 15° SE 02:43:26 10° ESE visible
14 Aug 10.6 04:33:29 15° SSW 04:47:51 36° SSE 05:02:00 10° E visible
15 Aug 10.8 03:23:19 20° S 03:32:05 27° SE 03:45:50 10° E visible
15 Aug 10.4 05:28:15 10° SW 05:46:25 46° SSE 06:00:42 10° E visible
16 Aug 11.0 02:13:07 17° SSE 02:16:44 18° SE 02:27:40 10° E visible
16 Aug 10.6 04:17:38 20° SSW 04:30:18 39° SSE 04:45:31 10° E visible
17 Aug 10.6 03:07:24 25° S 03:14:26 30° SE 03:29:17 10° E visible
17 Aug 10.4 05:11:56 13° SW 05:28:55 49° SSE 05:44:12 10° E visible
18 Aug 10.8 01:57:08 20° SE 01:59:04 21° SE 02:11:22 10° E visible
18 Aug 10.5 04:01:40 25° SSW 04:12:39 42° SSE 04:28:50 10° E visible
19 Aug 11.2 00:46:51 11° ESE 00:46:51 11° ESE 00:48:22 10° ESE visible
19 Aug 10.5 02:51:22 29° S 02:56:44 33° SE 03:12:29 10° E visible
19 Aug 10.3 04:55:53 17° SW 05:11:20 51° SSE 05:27:33 10° E visible
20 Aug 10.7 01:41:03 23° SE 01:41:24 23° SE 01:54:41 10° E visible
20 Aug 10.3 03:45:35 29° SSW 03:54:58 45° SSE 04:11:59 10° E visible
20 Aug 10.3 05:51:16 10° WSW 06:10:15 55° S 06:25:46 10° ESE visible
21 Aug 11.1 00:30:44 12° ESE 00:30:44 12° ESE 00:33:28 10° ESE visible
21 Aug 10.3 02:35:15 33° SSE 02:39:01 36° SSE 02:55:30 10° E visible
21 Aug 10.3 04:39:46 21° SW 04:53:42 53° S 05:10:46 10° E visible
22 Aug 10.6 01:24:55 25° SE 01:24:55 25° SE 01:37:44 10° E visible
22 Aug 10.2 03:29:26 34° SSW 03:37:16 47° SSE 03:54:59 10° E visible
22 Aug 10.3 05:33:57 10° WSW 05:52:40 55° S 06:09:03 10° ESE visible
23 Aug 11.1 00:14:35 12° ESE 00:14:35 12° ESE 00:17:21 10° ESE visible
23 Aug 10.2 02:19:05 37° SSE 02:21:20 38° SSE 02:38:20 10° E visible
23 Aug 10.2 04:23:36 25° SW 04:36:02 54° S 04:53:50 10° ESE visible
